Weather History for Laramie, WY

Change the Weather History Date:

Thursday, September 8, 2011

  Actual Average Record
Temperature  
Mean Temperature 53 °F 56 °F  
Max Temperature 68 °F 72 °F 85 °F (1979)
Min Temperature 38 °F 41 °F 24 °F (1962)
Degree Days  
Heating Degree Days 12 9  
Month to date heating degree days 66 60  
Since 1 July heating degree days 92 232  
Cooling Degree Days 0 0  
Month to date cooling degree days 2 0  
Year to date cooling degree days 126 66  
Growing Degree Days 2 (Base 50)    
Moisture  
Dew Point 40 °F    
Average Humidity 66    
Maximum Humidity 100    
Minimum Humidity 32    
Precipitation  
Precipitation 0.00 in 0.04 in 1.02 in (1989)
Month to date precipitation 0.76 0.30  
Year to date precipitation 8.51 8.45  
Sea Level Pressure  
Sea Level Pressure 30.31 in    
Wind  
Wind Speed 7 mph (SSE)    
Max Wind Speed 22 mph    
Max Gust Speed 28 mph    
Visibility 7 miles    
Events Fog    
T = Trace of Precipitation, MM = Missing Value Source: NWS Daily Summary

Daily Weather History Graph

Daily Weather History Graph

Search for Another Location

Airport:

Trip Planner

Search our weather history database for the weather conditions in past years. The results will help you decide how hot, cold, wet, or windy it might be!

Date:

Astronomy

Sep. 08, 2011 Rise Set
Actual Time 6:35 AM MDT 7:24 PM MDT
Civil Twilight 6:07 AM MDT 7:52 PM MDT
Nautical Twilight 5:34 AM MDT 8:25 PM MDT
Astronomical Twilight 5:00 AM MDT 8:59 PM MDT
Moon 5:21 PM MDT (9/8) 2:55 AM MDT (9/8)
Length of Visible Light 13h 44m
Length of Day
12h 48m
Waxing Gibbous, 88% of the Moon is Illuminated
Sep 8
Waxing Gibbous
Sep 12
Full
Sep 20
Last Quarter
Sep 27
New
Oct 3
First Quarter

Hourly Weather History & Observations

Time (MDT) Temp. Windchill Dew Point Humidity Pressure Visibility Wind Dir Wind Speed Gust Speed Precip Events Conditions
12:53 AM 46.9 °F - 44.1 °F 90% 30.32 in 10.0 mi SE 3.5 mph - N/A   Clear
1:53 AM 46.9 °F - 43.0 °F 86% 30.31 in 10.0 mi Calm Calm - N/A   Scattered Clouds
2:53 AM 46.0 °F - 43.0 °F 89% 30.31 in 10.0 mi Calm Calm - N/A   Scattered Clouds
3:53 AM 44.1 °F - 42.1 °F 93% 30.31 in 10.0 mi Calm Calm - N/A   Clear
4:53 AM 44.1 °F - 42.1 °F 93% 30.31 in 9.0 mi Calm Calm - N/A   Clear
5:53 AM 42.1 °F 39.2 °F 41.0 °F 96% 30.32 in 2.5 mi SE 4.6 mph - N/A   Clear
6:01 AM 41.0 °F 39.0 °F 39.2 °F 93% 30.49 in 0.8 mi SSE 3.5 mph - N/A   Clear
6:13 AM 39.2 °F 35.9 °F 39.2 °F 100% 30.49 in 0.2 mi South 4.6 mph - N/A Fog Fog
6:53 AM 39.0 °F 36.8 °F 39.0 °F 100% 30.34 in 0.2 mi WSW 3.5 mph - N/A Fog Fog
7:53 AM 42.1 °F - 42.1 °F 100% 30.35 in 0.5 mi Calm Calm - N/A Fog Fog
8:05 AM 44.6 °F - 42.8 °F 93% 30.50 in 1.0 mi Calm Calm - N/A   Mist
8:14 AM 44.6 °F - 44.6 °F 100% 30.50 in 0.5 mi Calm Calm - N/A Fog Fog
8:28 AM 46.4 °F - 46.4 °F 100% 30.50 in 1.0 mi Calm Calm - N/A   Mist
8:30 AM 46.4 °F - 46.4 °F 100% 30.50 in 2.5 mi Calm Calm - N/A   Scattered Clouds
8:37 AM 48.2 °F - 46.4 °F 93% 30.50 in 7.0 mi Calm Calm - N/A   Scattered Clouds
8:53 AM 48.0 °F - 46.0 °F 93% 30.33 in 10.0 mi Calm Calm - N/A   Partly Cloudy
9:53 AM 55.9 °F - 42.1 °F 60% 30.29 in 10.0 mi SE 5.8 mph - N/A   Clear
10:53 AM 64.0 °F - 39.0 °F 40% 30.25 in 10.0 mi SE 18.4 mph 24.2 mph N/A   Clear
11:53 AM 64.9 °F - 39.0 °F 39% 30.23 in 10.0 mi SSE 17.3 mph 24.2 mph N/A   Clear
12:53 PM 66.0 °F - 39.0 °F 37% 30.21 in 10.0 mi SE 15.0 mph 24.2 mph N/A   Clear
1:53 PM 66.9 °F - 37.0 °F 33% 30.20 in 10.0 mi SE 17.3 mph 25.3 mph N/A   Partly Cloudy
2:53 PM 66.9 °F - 36.0 °F 32% 30.18 in 10.0 mi SE 13.8 mph - N/A   Clear
3:53 PM 66.9 °F - 36.0 °F 32% 30.17 in 10.0 mi SE 11.5 mph 20.7 mph N/A   Clear
4:53 PM 66.9 °F - 36.0 °F 32% 30.17 in 10.0 mi SE 12.7 mph - N/A   Clear
5:53 PM 64.9 °F - 35.1 °F 33% 30.18 in 10.0 mi SSE 13.8 mph - N/A   Clear
6:53 PM 61.0 °F - 36.0 °F 39% 30.22 in 10.0 mi SSE 9.2 mph - N/A   Clear
7:53 PM 54.0 °F - 39.9 °F 59% 30.24 in 10.0 mi SSE 6.9 mph - N/A   Clear
8:53 PM 51.1 °F - 39.9 °F 66% 30.24 in 10.0 mi SSE 6.9 mph - N/A   Clear
9:53 PM 48.9 °F - 39.0 °F 69% 30.21 in 10.0 mi SSE 5.8 mph - N/A   Clear
10:53 PM 48.0 °F - 37.9 °F 68% 30.19 in 10.0 mi Calm Calm - N/A   Clear
11:53 PM 48.9 °F - 36.0 °F 61% 30.17 in 10.0 mi Calm Calm - N/A   Clear